Temperature
32 32 32 32 33 33 33 33 33 33 34 34 33 32 32 32 31 30 29 29 28 28 27 26 25 24 23 22 21 21 21 20 20 20 20 20 19 19 19 19 19 19 19 19
32 32 33 34 34 33 33 33 33 33 34 34 33 33 33 32 32 31 30 29 29 28 27 26 25 24 23 22 21 21 21 20 20 20 20 20 20 19 19 19 19 19 19 19
32 33 34 33 33 33 33 33 33 33 34 34 33 32 32 32 32 31 31 30 30 29 27 26 25 25 24 23 22 21 21 21 20 20 20 20 20 19 19 19 19 19 19 19
33 34 34 33 33 33 33 34 34 33 33 32 33 30 30 31 31 31 31 30 30 29 28 27 26 25 24 23 22 22 21 21 21 20 20 20 20 20 19 19 19 19 19 19
33 33 33 33 33 34 33 34 34 33 33 32 33 32 31 31 30 31 31 31 30 29 28 27 26 25 25 24 23 22 21 21 21 20 20 20 20 20 19 19 19 19 19 19
33 34 34 34 34 34 34 34 33 33 32 30 31 32 31 31 31 31 31 30 30 29 28 27 27 26 25 24 23 22 21 21 21 21 20 20 20 20 19 19 19 19 19 19
32 33 34 34 33 34 34 32 30 29 29 30 31 31 31 32 33 32 32 31 30 30 29 28 27 26 25 24 23 23 22 21 21 21 20 20 20 20 20 19 19 19 19 19
31 31 33 34 33 32 33 32 30 29 29 30 30 30 31 33 33 33 32 32 31 30 29 28 27 26 25 24 24 23 22 21 21 21 21 20 20 20 20 19 19 19 19 19
31 31 34 34 34 33 32 32 33 31 30 30 30 31 31 32 32 32 32 32 31 30 29 28 27 26 25 24 24 23 22 22 21 21 21 20 20 20 20 19 19 19 19 19
32 31 33 34 33 33 33 33 32 31 29 29 30 31 30 30 29 30 31 31 31 30 29 28 27 26 25 24 23 23 22 22 21 21 21 20 20 20 20 19 19 19 19 19
33 32 32 33 32 32 32 32 32 32 31 30 29 30 31 30 29 30 30 30 30 30 29 28 27 26 25 25 24 23 22 22 21 21 20 20 20 20 19 19 19 19 19 18
33 32 31 32 34 34 33 32 32 30 29 30 29 30 32 31 31 31 30 30 29 29 28 28 27 26 25 25 24 23 22 22 21 21 20 20 20 20 19 19 19 19 19 18
31 31 30 31 32 32 32 32 32 31 30 30 29 29 32 31 31 30 30 29 28 28 27 27 27 26 25 24 24 23 22 22 21 21 20 20 20 19 19 19 19 19 18 18
30 30 30 29 30 31 31 31 32 31 30 30 30 29 30 30 29 29 29 29 28 28 27 27 26 25 25 24 23 23 22 22 21 21 20 20 19 19 19 19 19 18 18 18
31 30 30 31 31 31 31 31 31 31 31 30 29 29 29 29 29 29 29 28 28 27 27 26 26 25 24 23 23 22 22 21 21 20 20 20 19 19 19 19 18 18 18 18
30 29 29 29 30 31 30 31 31 31 31 30 30 29 30 30 29 28 28 27 27 27 26 26 25 24 24 23 22 22 21 21 21 20 20 19 19 19 19 19 19 18 18 18
29 28 27 28 29 30 29 31 31 31 31 30 29 29 29 29 28 27 26 26 26 26 25 25 25 24 23 23 22 22 21 21 21 20 20 19 19 19 19 19 18 18 18 18
28 27 27 27 27 26 29 31 31 30 30 30 30 29 28 27 26 26 25 24 24 24 24 24 24 23 23 23 22 21 21 21 20 20 20 19 19 19 19 18 18 18 18 18
29 27 27 26 26 27 29 30 30 29 28 29 29 28 28 27 26 25 24 24 23 23 23 23 23 23 22 22 22 21 21 20 20 20 19 19 19 19 18 18 18 18 18 18
28 28 26 26 25 26 27 29 29 29 27 28 27 27 27 26 26 24 23 23 22 22 22 22 22 22 22 21 21 20 20 20 20 19 19 19 19 18 18 18 18 18 18 17
26 26 25 25 25 26 27 28 28 26 25 26 26 25 25 25 24 23 22 22 22 21 21 21 21 21 21 20 20 20 20 19 19 19 19 19 18 18 18 18 18 18 17 17
26 25 25 25 24 24 25 26 25 24 25 25 24 24 23 23 23 22 22 21 21 21 20 20 20 20 20 19 19 19 19 19 19 19 19 18 18 18 18 18 18 17 17 17
26 25 25 24 24 24 24 24 23 23 23 23 23 23 22 22 22 21 21 20 20 20 19 19 19 19 19 19 19 19 19 18 18 18 18 18 18 18 18 18 17 17 17 17
25 25 24 23 24 24 23 23 23 22 22 22 22 22 21 21 21 21 20 20 19 19 18 18 18 18 18 18 18 18 18 18 18 18 18 18 18 17 17 17 17 17 17 17
23 23 23 22 23 22 22 22 21 21 21 21 21 21 21 20 20 20 19 19 18 18 18 18 17 17 17 17 17 17 17 17 17 17 17 17 17 17 17 17 17 17 17 17
23 23 22 22 22 21 21 21 21 20 20 20 20 20 20 20 19 19 19 18 18 17 17 17 17 16 16 16 16 16 17 17 17 17 17 17 17 17 17 17 17 17 17 17
Wind_Speed
12 12 10 8 9 9 9 9 6 3 2 4 3 4 8 10 11 12 12 12 15 14 15 14 14 14 14 12 10 9 8 7 6 4 4 3 3 2 2 3 4 4 3 3
12 14 12 10 9 9 11 10 7 5 3 5 5 5 6 10 12 12 13 14 15 16 15 15 14 14 14 13 12 10 9 8 7 5 4 4 3 3 3 3 4 3 3 3
15 11 9 9 10 11 12 10 8 8 6 7 8 6 4 8 9 11 12 13 13 15 17 17 15 14 14 14 13 11 10 9 8 7 5 4 3 2 2 4 3 3 2 2
14 13 11 10 12 12 11 9 9 10 10 8 7 6 5 7 8 9 10 11 12 14 16 16 16 16 15 15 14 11 11 10 8 7 6 7 5 4 4 3 3 3 3 2
13 12 11 13 12 11 10 10 11 12 12 12 12 8 5 8 9 10 11 11 11 12 14 16 15 14 14 14 14 12 11 10 9 8 7 6 5 4 4 3 5 4 3 3
16 12 11 12 11 10 10 11 12 11 10 11 12 10 4 5 8 8 8 10 9 11 12 13 13 12 12 14 14 13 12 10 9 9 8 7 6 5 4 4 4 3 3 3
15 15 12 11 11 10 11 11 8 7 7 9 8 8 3 5 6 8 9 11 11 11 13 13 13 13 13 14 14 14 14 12 11 10 8 7 6 6 6 5 5 5 4 4
12 12 12 11 10 9 10 10 8 9 8 7 5 6 2 3 5 6 7 8 9 9 11 13 13 12 11 13 13 14 14 13 12 11 8 7 6 6 5 5 4 5 4 4
9 9 8 9 9 11 11 10 11 11 12 11 7 4 3 2 2 4 6 8 8 8 10 12 13 12 10 9 11 12 13 13 12 12 10 8 7 6 6 6 6 4 3 4
11 10 11 10 9 13 13 11 9 9 7 9 9 6 2 2 2 2 2 6 8 9 9 10 11 12 12 11 10 10 11 11 11 11 10 10 8 7 6 5 6 5 5 4
13 13 11 10 11 12 11 12 11 9 8 9 8 5 2 5 4 4 5 5 6 7 7 7 8 10 11 11 12 13 12 11 11 11 9 9 9 8 7 6 5 6 5 5
9 11 12 12 11 11 11 12 11 10 8 9 9 7 2 4 4 4 3 4 6 5 5 7 7 8 9 10 10 10 11 11 11 9 8 8 8 8 9 8 6 5 6 6
6 8 11 11 10 10 10 11 11 11 10 10 10 6 2 2 3 3 5 5 5 6 5 6 6 7 7 7 7 8 9 10 9 9 9 8 8 8 8 7 7 6 6 6
6 11 14 13 9 7 10 13 12 12 11 11 11 6 4 2 2 2 4 4 4 5 5 5 5 6 5 5 5 5 6 7 8 8 8 8 8 7 7 5 6 6 6 6
7 13 15 15 14 12 13 14 13 13 13 12 10 9 7 2 1 2 3 3 2 3 3 4 5 5 5 5 5 5 5 6 7 7 7 7 7 7 6 6 5 6 6 7
8 11 14 15 16 16 15 16 15 15 12 11 9 8 3 2 3 3 4 3 3 3 1 2 4 5 5 5 6 5 5 5 6 6 7 6 6 6 6 6 6 6 6 6
10 11 13 15 16 17 17 14 13 11 8 8 7 4 2 3 4 4 6 5 5 3 3 3 1 3 4 5 6 5 5 6 6 6 6 6 6 6 6 7 7 6 6 6
12 11 10 14 15 18 14 9 8 8 8 7 4 1 3 3 4 7 8 7 6 5 4 3 1 1 3 4 5 5 6 5 6 7 6 6 6 6 6 6 6 6 6 6
13 10 10 12 16 16 13 8 8 6 6 7 4 1 1 1 3 6 7 6 5 5 5 4 3 1 0 2 3 4 6 6 6 6 6 6 6 6 6 6 6 5 5 6
12 10 11 12 15 15 9 7 8 7 5 5 5 3 2 2 1 2 5 5 5 5 5 5 4 2 2 2 3 2 4 5 5 5 5 6 6 6 6 6 5 5 5 6
9 9 12 14 15 11 8 9 8 7 3 6 5 4 4 3 3 3 4 4 5 5 5 5 5 4 3 2 3 2 2 3 4 4 4 5 5 6 6 5 5 5 5 6
10 9 10 11 13 8 8 7 5 5 5 5 5 5 5 4 4 4 4 5 5 5 5 5 5 4 3 2 2 2 1 0 1 2 4 4 4 5 6 5 5 5 6 6
8 6 6 6 4 3 6 6 6 6 6 6 5 5 4 4 3 3 3 4 4 4 4 4 4 4 3 2 2 2 2 2 1 1 2 3 4 3 3 4 5 6 6 6
6 6 7 7 6 6 6 7 8 7 6 7 6 5 5 4 4 3 3 2 3 4 4 4 4 4 3 3 2 1 1 1 0 1 2 3 4 4 3 4 5 5 5 6
9 7 8 9 8 9 7 7 8 7 7 7 6 5 5 5 5 4 3 2 2 2 3 3 3 2 3 3 3 2 1 1 1 2 2 4 4 4 4 5 4 5 4 5
9 9 9 8 7 7 9 9 9 8 8 7 7 6 6 6 6 5 4 2 2 2 2 3 4 4 3 3 3 2 1 2 3 3 4 4 4 4 4 5 5 5 6 7
Wind_Direction
233 242 244 241 247 267 281 289 296 305 267 272 264 210 188 187 185 176 181 187 179 178 173 166 168 164 159 156 157 159 163 156 159 162 159 156 156 153 136 137 136 145 144 134
241 242 250 252 253 267 277 284 294 296 283 289 283 263 212 195 191 185 190 193 184 177 171 168 173 171 168 163 163 164 167 165 167 165 164 165 160 162 155 132 129 139 139 146
240 246 248 256 261 263 268 278 288 290 288 275 275 265 237 215 205 190 197 194 185 181 174 174 178 176 173 169 169 172 170 168 174 169 172 168 149 172 147 141 149 150 145 136
245 249 244 248 256 259 266 282 288 288 287 281 272 267 236 211 203 195 199 197 188 185 177 177 180 180 178 173 172 169 165 167 172 173 181 178 176 178 173 159 148 148 149 145
249 243 241 248 253 258 274 288 283 285 286 284 275 268 231 189 195 190 191 192 191 180 175 176 180 179 176 170 170 166 161 166 170 176 181 182 182 174 158 155 147 159 168 169
258 252 246 254 259 261 272 276 277 280 277 271 275 278 235 195 191 191 178 176 189 175 169 171 173 169 174 170 168 164 161 166 169 176 182 182 179 163 157 160 159 174 172 173
249 246 240 247 253 249 253 260 275 276 260 263 276 275 223 185 166 165 177 173 178 174 167 165 167 170 173 171 170 166 165 170 173 178 182 181 182 173 174 182 178 183 186 178
242 244 230 233 243 253 255 259 258 271 277 281 272 266 263 136 134 149 160 154 159 166 169 164 167 167 170 172 171 169 168 172 176 180 181 180 183 188 187 189 194 193 194 174
255 254 234 226 234 253 257 258 269 273 277 283 270 224 198 182 146 155 153 150 153 158 162 164 167 164 161 172 171 169 167 172 178 181 178 180 184 193 190 186 195 197 185 172
263 270 250 226 229 236 247 263 273 269 282 284 280 268 217 158 156 204 194 162 152 152 154 155 160 165 166 171 173 165 167 171 177 178 181 184 186 193 191 189 188 191 189 178
258 264 256 231 228 239 236 247 258 275 280 285 284 291 170 160 177 183 204 161 136 148 151 154 161 165 166 166 170 169 171 173 178 181 180 182 183 191 190 192 193 189 187 178
256 263 265 255 245 244 243 250 252 259 267 279 285 284 171 153 167 165 143 123 133 139 152 153 158 162 163 169 167 168 170 176 178 175 176 183 184 186 189 193 196 191 184 182
308 272 267 260 246 235 245 258 262 265 270 266 268 276 341 71 101 108 118 114 117 128 158 158 154 156 161 167 164 167 175 175 173 173 179 183 186 189 191 192 188 189 189 184
298 268 271 272 279 276 266 260 259 260 265 271 276 278 284 308 74 76 96 109 132 138 137 143 146 142 149 151 149 156 174 170 169 172 178 182 187 185 188 187 186 188 188 185
264 266 274 280 279 278 276 273 266 261 265 272 283 289 292 291 143 147 103 95 93 108 134 142 143 141 146 147 150 161 177 170 165 169 177 179 182 179 181 178 185 186 193 194
261 280 289 284 280 276 270 268 271 270 269 266 271 279 287 1 68 64 79 87 73 65 85 115 135 142 150 159 163 166 175 165 159 168 175 172 175 176 176 176 180 188 193 192
279 281 285 282 286 288 273 270 275 274 276 281 281 296 16 30 50 42 39 36 48 34 38 40 79 147 159 166 165 171 175 171 167 172 175 171 175 177 178 185 180 184 191 191
260 265 270 273 279 270 277 286 285 286 304 309 302 337 20 71 55 50 50 45 31 15 13 9 9 125 169 172 173 173 174 170 172 174 177 174 177 182 181 183 184 185 188 193
252 255 263 267 266 266 269 289 292 285 297 321 323 349 62 125 93 68 58 48 43 17 2 4 351 330 182 149 152 174 176 175 180 183 185 182 184 185 185 191 191 192 193 199
243 244 249 258 265 268 285 320 317 297 276 356 7 4 18 347 246 59 40 36 35 24 14 7 358 24 36 71 117 155 193 185 190 190 190 186 188 190 189 195 195 199 203 207
244 240 244 254 260 266 315 336 320 287 320 21 24 10 23 31 16 31 28 29 27 23 25 20 15 30 33 44 118 140 172 194 200 191 189 191 195 197 190 193 200 203 210 210
261 258 258 263 263 269 354 350 346 352 0 7 19 13 18 26 16 22 23 23 21 21 20 14 16 20 38 40 110 130 137 283 217 198 189 191 203 216 197 192 202 207 212 218
268 277 281 280 286 356 358 354 354 357 354 352 350 353 358 345 346 356 7 14 15 12 11 2 11 10 7 15 35 80 39 22 9 220 205 207 211 210 195 201 204 210 212 219
285 315 296 294 303 327 341 342 340 343 339 334 337 337 332 322 325 334 346 0 6 3 353 350 354 353 353 353 358 39 35 38 348 249 224 221 215 216 198 211 215 220 220 221
300 301 294 288 298 306 316 334 331 328 329 325 322 320 316 315 317 321 332 342 348 339 339 338 332 334 333 335 338 352 347 315 252 253 244 242 233 217 206 212 221 218 220 216
286 289 282 287 307 306 308 318 321 321 321 319 315 312 309 304 306 314 314 320 327 320 329 327 323 323 321 319 314 312 296 278 257 249 246 249 245 228 221 217 224 226 221 208
Height
1485 1487 1487 1482 1479 1479 1478 1480 1481 1475 1468 1470 1474 1476 1477 1479 1482 1486 1491 1494 1498 1502 1506 1510 1513 1517 1519 1521 1523 1525 1528 1529 1531 1533 1534 1536 1537 1538 1539 1540 1541 1541 1542 1543
1484 1484 1478 1475 1475 1477 1478 1481 1480 1473 1467 1470 1473 1474 1472 1475 1478 1482 1486 1490 1493 1498 1503 1507 1511 1514 1517 1519 1521 1523 1526 1528 1530 1531 1533 1535 1537 1538 1539 1540 1540 1541 1542 1542
1483 1478 1473 1475 1477 1479 1479 1478 1478 1476 1470 1468 1473 1479 1474 1472 1474 1478 1482 1485 1489 1493 1498 1503 1507 1511 1514 1516 1518 1521 1524 1526 1528 1530 1532 1535 1536 1537 1539 1539 1540 1541 1542 1542
1476 1471 1472 1475 1477 1477 1480 1470 1471 1472 1476 1479 1475 1492 1481 1472 1473 1475 1478 1482 1485 1489 1494 1499 1503 1507 1511 1514 1517 1519 1521 1524 1526 1529 1531 1533 1534 1536 1537 1539 1539 1540 1541 1541
1474 1470 1472 1475 1472 1470 1473 1468 1469 1471 1475 1480 1473 1482 1481 1471 1475 1473 1474 1478 1482 1485 1490 1494 1499 1504 1507 1511 1514 1516 1519 1521 1524 1527 1529 1531 1533 1535 1537 1538 1539 1539 1540 1541
1469 1466 1467 1468 1466 1466 1467 1470 1471 1472 1478 1495 1480 1481 1484 1472 1471 1470 1471 1475 1479 1482 1486 1491 1496 1501 1504 1508 1511 1513 1516 1519 1522 1524 1527 1529 1531 1533 1535 1536 1537 1538 1539 1539
1474 1466 1464 1465 1468 1466 1468 1479 1495 1500 1502 1497 1475 1479 1477 1462 1460 1463 1467 1471 1475 1479 1483 1488 1494 1498 1501 1505 1508 1511 1513 1516 1519 1522 1524 1527 1529 1531 1532 1534 1535 1536 1537 1538
1480 1477 1463 1462 1467 1471 1469 1475 1497 1510 1505 1491 1480 1484 1470 1457 1459 1462 1464 1468 1472 1477 1480 1485 1491 1495 1499 1503 1506 1508 1510 1513 1516 1519 1522 1524 1527 1529 1530 1532 1533 1535 1536 1537
1474 1474 1458 1458 1461 1466 1471 1472 1467 1480 1486 1492 1484 1473 1467 1460 1461 1462 1463 1467 1471 1475 1479 1484 1489 1493 1496 1499 1503 1506 1508 1511 1514 1516 1519 1522 1524 1526 1528 1530 1531 1533 1534 1535
1463 1473 1461 1457 1460 1461 1463 1465 1470 1481 1498 1502 1489 1479 1478 1470 1468 1466 1466 1467 1470 1474 1479 1483 1487 1491 1494 1497 1501 1503 1506 1509 1511 1514 1516 1519 1521 1523 1526 1528 1529 1531 1532 1533
1460 1469 1465 1460 1464 1466 1465 1468 1470 1473 1478 1495 1502 1488 1463 1465 1466 1466 1467 1467 1470 1473 1477 1481 1485 1489 1492 1496 1498 1501 1504 1506 1509 1512 1513 1516 1518 1520 1523 1525 1526 1528 1529 1530
1460 1464 1469 1461 1452 1452 1457 1462 1467 1482 1486 1482 1489 1485 1455 1459 1462 1463 1465 1468 1471 1473 1476 1480 1484 1487 1491 1494 1497 1500 1502 1505 1507 1508 1511 1513 1516 1518 1520 1522 1523 1525 1527 1528
1465 1469 1479 1474 1465 1458 1459 1459 1460 1466 1474 1480 1488 1484 1457 1459 1460 1463 1465 1469 1472 1474 1477 1479 1483 1487 1489 1492 1495 1498 1500 1502 1504 1506 1508 1510 1513 1515 1517 1519 1521 1522 1524 1525
1469 1470 1476 1483 1474 1465 1466 1462 1459 1465 1476 1479 1477 1474 1464 1462 1463 1465 1468 1469 1472 1475 1477 1479 1483 1486 1489 1491 1493 1496 1498 1500 1502 1504 1506 1508 1510 1512 1514 1516 1518 1520 1521 1522
1468 1473 1469 1464 1460 1460 1462 1461 1459 1462 1464 1471 1471 1469 1465 1462 1465 1467 1468 1471 1472 1475 1478 1480 1483 1486 1488 1491 1492 1494 1497 1499 1500 1502 1504 1506 1508 1510 1512 1513 1515 1516 1518 1519
1468 1472 1471 1470 1462 1460 1462 1459 1457 1457 1457 1461 1464 1466 1460 1462 1464 1468 1469 1472 1474 1477 1479 1481 1483 1485 1488 1490 1491 1493 1495 1497 1499 1500 1502 1504 1505 1507 1509 1510 1512 1513 1515 1516
1471 1474 1480 1479 1467 1465 1468 1457 1457 1456 1455 1458 1465 1465 1462 1465 1466 1470 1471 1473 1475 1478 1480 1481 1483 1485 1487 1489 1490 1491 1493 1495 1497 1498 1500 1501 1503 1504 1506 1507 1509 1510 1512 1513
1472 1476 1478 1479 1479 1489 1464 1449 1451 1455 1456 1455 1457 1461 1464 1467 1470 1472 1474 1476 1477 1480 1480 1481 1483 1484 1486 1487 1489 1490 1491 1492 1494 1496 1498 1499 1500 1502 1503 1505 1506 1507 1509 1510
1465 1472 1478 1480 1482 1474 1460 1454 1453 1457 1462 1458 1459 1462 1465 1468 1470 1474 1476 1478 1479 1480 1481 1481 1482 1483 1485 1486 1487 1488 1489 1490 1492 1493 1495 1497 1498 1499 1500 1502 1503 1504 1506 1507
1463 1466 1476 1478 1484 1483 1467 1457 1455 1457 1465 1463 1463 1465 1467 1469 1470 1476 1477 1478 1479 1479 1481 1481 1482 1482 1483 1484 1485 1487 1488 1489 1489 1491 1493 1494 1496 1496 1497 1499 1500 1502 1503 1504
1469 1471 1475 1477 1479 1471 1464 1460 1459 1470 1473 1467 1467 1469 1470 1471 1474 1477 1478 1479 1480 1480 1481 1481 1481 1482 1482 1482 1483 1484 1485 1486 1487 1489 1490 1491 1493 1493 1494 1496 1497 1499 1500 1502
1470 1473 1474 1475 1480 1479 1468 1465 1469 1473 1470 1470 1470 1471 1472 1474 1476 1477 1478 1479 1480 1480 1481 1481 1481 1481 1481 1481 1482 1482 1483 1484 1485 1487 1488 1489 1490 1491 1492 1493 1494 1496 1497 1498
1465 1468 1470 1472 1477 1473 1471 1472 1472 1472 1472 1472 1472 1473 1474 1475 1477 1478 1479 1480 1480 1480 1481 1481 1481 1480 1480 1480 1480 1480 1481 1482 1483 1484 1485 1487 1488 1488 1489 1490 1491 1492 1494 1495
1466 1467 1469 1472 1471 1471 1473 1473 1474 1474 1474 1473 1473 1474 1475 1476 1476 1477 1478 1479 1480 1480 1480 1480 1480 1480 1479 1479 1479 1479 1480 1480 1481 1482 1482 1484 1485 1485 1486 1486 1488 1489 1489 1490
1472 1471 1472 1473 1473 1474 1473 1474 1474 1474 1473 1473 1473 1473 1474 1475 1475 1476 1477 1477 1478 1478 1479 1478 1478 1478 1478 1477 1477 1477 1477 1478 1479 1479 1480 1481 1482 1482 1482 1483 1483 1484 1485 1486
1473 1473 1473 1474 1474 1475 1474 1474 1473 1473 1472 1472 1472 1472 1473 1474 1475 1475 1476 1475 1476 1476 1476 1476 1476 1476 1476 1475 1475 1475 1475 1476 1476 1476 1476 1477 1478 1478 1478 1479 1480 1480 1481 1482